Regional Weather Roundup
Issued by NWS

Home | Current Version | Previous Version | Text Only | Print | Product List | Glossary Off
Versions: 1 2 3 4 5 6 7 8 9 10 11 12 13 14 15 16 17 18 19 20 21 22 23 24 25 26 27 28 29 30 31 32 33 34 35 36 37 38 39 40 41 42 43 44 45 46 47 48 49 50

000
ASUS43 KDTX 271510
RWRMI
MICHIGAN HOURLY REGIONAL WEATHER ROUNDUP
NATIONAL WEATHER SERVICE DETROIT/PONTIAC MI
1000 AM EST SAT DEC 27 2014

NOTE: "FAIR" INDICATES FEW OR NO CLOUDS BELOW 12,000 FEET WITH NO
SIGNIFICANT WEATHER AND/OR OBSTRUCTION TO VISIBILITY.

MIZ047>049-052>055-059>063-066>070-074>076-081>083-271600-
SOUTHEAST LOWER MICHIGAN

CITY           SKY/WX    TMP DP  RH WIND       PRES   REMARKS
ADRIAN         CLOUDY    43  41  93 SW15      30.08F FOG
ALMA           CLOUDY    44  42  93 S13       29.97F
ANN ARBOR      CLOUDY    43  42  97 SW12G18   30.07S
BAD AXE        CLOUDY    42  42  99 S7        30.01R
CARO           CLOUDY    45  41  86 S10       30.00R
DETROIT CITY   CLOUDY    46  41  82 S14       30.08S
DETROIT        CLOUDY    45  43  93 S10       30.09R FOG
FLINT          CLOUDY    47  41  80 S14       30.02S
GROSSE ILE     CLOUDY    41  37  87 S12       30.08S
HILLSDALE      CLOUDY    44  44 100 S10       30.04F FOG
HOWELL         CLOUDY    44  42  95 S12G17    30.02S

CITY           SKY/WX    TMP DP  RH WIND       PRES   REMARKS
JACKSON        CLOUDY    45  42  89 SW16G23   30.02F
LAMBERTVILLE   CLOUDY    46  37  71 S10G16    30.10S
LANSING        CLOUDY    45  42  89 S14       30.01S
LAPEER         CLOUDY    43  41  93 S9        30.02F
MASON          CLOUDY    44  41  90 S6        30.01F
MONROE         DRIZZLE   46  39  76 SW9       30.08S
MT. CLEMENS    DRIZZLE   42  42 100 S9        30.05S FOG
PONTIAC        LGT RAIN  43  42  97 S10       30.03F FOG
PORT HOPE        N/A     44  39  82 VRB6      29.98F
PORT HURON     LGT RAIN  43  41  93 S13       30.07R
TRI CITIES     CLOUDY    46  41  82 S12       29.98S
TROY           LGT RAIN  45  43  92 S12       30.07F
SAGINAW HB     CLOUDY    45  43  93 S16       29.99F
$$
MIZ043>046-050>051-056>058-064>065-071>073-077>080-271600-
SOUTHWEST LOWER MICHIGAN

CITY           SKY/WX    TMP DP  RH WIND       PRES   REMARKS
BATTLE CREEK   CLOUDY    45  42  89 S15       30.01F FOG
BENTON HARBOR  CLOUDY    45  45 100 S13       29.98F FOG
BIG RAPIDS     RAIN      44  44 100 S13       29.89F
COLDWATER      CLOUDY    44  43  97 SW13      30.03F
FREMONT        CLOUDY    45  44  97 S13G21    29.90F FOG
HOLLAND        CLOUDY    47  44  90 S17G24    29.96F
GRAND RAPIDS   CLOUDY    46  43  89 S15       29.96F
IONIA          CLOUDY    46  44  94 S16       29.96F
KALAMAZOO      CLOUDY    45  43  93 S14       30.00F FOG
LUDINGTON      CLOUDY    45  43  93 S16       29.85F FOG
MARSHALL       CLOUDY    43  42  95 S12G18    30.02F FOG
MOUNT PLEASANT CLOUDY    43  41  93 S5        29.95F
MUSKEGON       FOG       44  43  96 S23G33    29.93S VSB 1/2
SOUTH HAVEN    CLOUDY    46  45  93 S12G18    29.97F
$$
MIZ016>042-271600-
NORTHERN LOWER MICHIGAN

CITY           SKY/WX    TMP DP  RH WIND       PRES   REMARKS
ALPENA         LGT RAIN  38  36  92 S6        29.93F WCI  33
BEAVER ISLAND  RAIN      35  35 100 E3        29.85F
BELLAIRE       LGT SNOW  42  39  92 S6        29.86F
CADILLAC       LGT RAIN  40  40  99 S13G18    29.84F VSB 3/4 WCI  33
CHARLEVOIX     MIX PCPN  38  37  97 SE5       29.88F WCI  34
FRANKFORT      LGT RAIN  43  42  96 S10G18    29.82F
GAYLORD        LGT RAIN  36  36 100 S9        29.85F VSB 3/4 WCI  29
GRAYLING       FOG       39  39 100 S7        29.89F VSB 1/2 WCI  34
HARBOR SPRINGS RAIN      37  35  94 E5        29.86F WCI  33
HOUGHTON LAKE  CLOUDY    39  38  96 S9        29.90F FOG     WCI  33
MANISTEE       CLOUDY    45  41  87 S7G16     29.85F
OSCODA         CLOUDY    42  40  94 S9        29.95F
PELLSTON       CLOUDY    36  35  96 SE5       29.86F FOG     WCI  32
ROGERS CITY    CLOUDY    37  37  98 S9        29.92F FOG     WCI  30
TRAVERSE CITY  CLOUDY    43  41  93 VRB3      29.83F FOG
$$
MIZ007>008-015-271600-
EASTERN UPPER MICHIGAN

CITY           SKY/WX    TMP DP  RH WIND       PRES   REMARKS
KINROSS        CLOUDY    36  36 100 E5        29.88F WCI  32
MACKINAC ISLAN CLOUDY    37  37 100 SE5       29.86F FOG     WCI  33
NEWBERRY       LGT SNOW  31  31 100 N5        29.85F WCI  27
S. S. MARIE    LGT RAIN  33  33 100 E5        29.88F VSB 1/4 WCI  29
MUNISING         N/A     35  31  85 N8        29.87F WCI  29
$$
MIZ004>006-011>014-085-271600-
CENTRAL UPPER MICHIGAN

CITY           SKY/WX    TMP DP  RH WIND       PRES   REMARKS
MANISTIQUE     LGT SNOW  32  32 100 NE7       29.84F WCI  26
ESCANABA       CLOUDY    32  28  86 N8        29.82F VSB 1   WCI  25
MENOMINEE      CLOUDY    34  32  93 N9        29.81R WCI  26
SAWYER-GWINN   SNOW      30  30 100 NE13      29.85F VSB 1/2 WCI  20
$$
MIZ001>003-009>011-084-271600-
WESTERN UPPER MICHIGAN

CITY           SKY/WX    TMP DP  RH WIND       PRES   REMARKS
IRON MOUNTAIN  SNOW      31  29  92 N9        29.81F VSB 1/4 WCI  23
HOUGHTON       LGT SNOW  28  24  85 NE8       29.91F VSB 1   WCI  20
COPPER HARBOR    N/A     30  27  88 E15       29.95F WCI  19
IRONWOOD       CLOUDY    28  28 100 N9        29.90F VSB 1/2 WCI  20
$$

ABBREVIATIONS USED IN REMARKS
   TC - TEMPERATURE IN CELSIUS
  WCI - WIND CHILL INDEX
   HX - HEAT INDEX
  VSB - VISIBILITY




USA.gov is the U.S. government's official web portal to all federal, state and local government web resources and services.